Location: Newark
(49.8348°N, 24.0280°E)
Time: 06:13:46
(UTC+00:00)

Transit 2A - Pass Details

Date: 28 January 2020
Orbit: 600 x 959 km, 66.7° (Epoch: 19 February)

Event Time Altitude Azimuth Distance (km) Brightness Sun altitude
Rises 17:52:26 0° 213° (SSW) 2,877 9.4 -25.9°
Reaches altitude 10° 17:54:42 10° 213° (SSW) 1,955 8.4 -26.3°
Enters shadow 17:57:25 38° 210° (SSW) 927 6.6 -26.7°
Maximum altitude 17:59:02 85° 127° (SE) 610 - -27.0°
Drops below altitude 10° 18:03:25 10° 38° (NE) 1,965 - -27.7°
Sets 18:05:42 0° 37° (NE) 2,894 - -28.1°
